Simultaneous Nadir Overpasses (SNOs) Predictions

Prediction of SNOs between LANDSAT-8 and NPP Satellite Orbit:

Table of predicted SNOs for the next 14.0 days since TLE Epoch: 1/28/2023
Index Date (LANDSAT-8) Time (LANDSAT-8) Lat,Lon (LANDSAT-8) SZA (LANDSAT-8 ) Date (NPP) Time (NPP) Lat,Lon (NPP) SZA (NPP ) Distance(km) Time Diff (sec)
1 01/28/2023 13:52:49 -70.25, 148.47 91.57 01/28/2023 13:51:43 -70.24, 148.48 91.57 1.34 66
2 01/28/2023 14:42:16 70.15, -44.04 88.32 01/28/2023 14:42:27 70.12, -44.03 88.30 2.36 11
3 01/28/2023 15:31:52 -69.71, 122.98 92.11 01/28/2023 15:33:03 -69.72, 123.90 92.14 35.56 71
4 01/31/2023 06:09:19 -70.21, -95.71 92.33 01/31/2023 06:08:39 -70.23, -95.72 92.31 1.69 40
5 01/31/2023 06:58:46 70.11, 71.78 87.56 01/31/2023 06:59:23 70.12, 71.76 87.57 1.54 37
6 02/02/2023 21:36:11 70.69,-146.76 87.38 02/02/2023 21:35:01 70.74,-148.09 87.50 49.37 70
7 02/02/2023 22:25:48 -70.20, 20.15 93.10 02/02/2023 22:25:34 -70.17, 20.14 93.12 3.52 14
8 02/02/2023 23:15:15 70.09,-172.36 86.79 02/02/2023 23:16:18 70.06,-172.39 86.76 3.41 63
9 02/05/2023 13:52:47 70.27, -31.51 86.19 02/05/2023 13:51:48 70.28, -31.57 86.21 2.76 59
10 02/05/2023 14:42:17 -70.17, 135.98 93.93 02/05/2023 14:42:30 -70.18, 135.90 93.91 3.13 13
11 02/05/2023 15:31:54 69.50, -57.30 85.44 02/05/2023 15:33:03 69.49, -55.76 85.36 59.98 69
12 02/08/2023 06:09:15 70.20, 84.28 85.29 02/08/2023 06:08:41 70.19, 84.34 85.29 2.65 34
13 02/08/2023 06:58:45 -70.10,-108.23 94.82 02/08/2023 06:59:23 -70.09,-108.18 94.84 2.47 38
14 02/10/2023 21:36:11 -70.55, 33.03 95.23 02/10/2023 21:34:59 -70.63, 32.11 95.10 34.86 72
15 02/10/2023 22:25:43 70.16,-159.90 84.40 02/10/2023 22:25:36 70.17,-159.84 84.40 2.19 7
16 02/10/2023 23:15:13 -70.06, 7.59 95.72 02/10/2023 23:16:18 -70.06, 7.64 95.73 1.90 65



Historial Predications of SNOs between LANDSAT-8 and NPP
